COSMOS 970 DEB, 13505

Orbit data source: Space-Track

COSMOS 970 DEB, 13505 is space debris in LEO originally from a launch on Wed, 21 Dec 1977 UTC launched from the Tyuratam Missile And Space Complex (TTMTR). Debris objects in space refer to the collection of defunct objects orbiting the Earth. Examples of debris include non-operational satellites, rocket bodies, and fragments generated from explosions, collisions, or faulty payload assembly.

Loading next visibility...
Identifier
13505, 1977-121BC
Orbit
LEO
Country
Flag of CISCIS
Related business
Manufacturer
Unknown
Mission
Spacecraft
Bus & Motor
Unknown
Mass
Unknown
Launch date (UTC)
1977-12-21 (48 years ago)
Launch vehicle
Unknown
Launch site
Tyuratam Missile And Space Complex (TTMTR)
Object type
Payload
Rocket body
Debris
Shape & HBR
Unknown shape, 0.1 m
Radar Cross Section
Medium (>0.1 m² and <1 m²)

Expand to show TLE details & history
Last TLE update: 1 day ago

TLE from 1 day ago
0 COSMOS 970 DEB
1 13505U 77121BC  26170.92752318  .00000638  00000-0  94200-3 0  9990
2 13505  65.3551  93.9828 0010731 109.4516 325.9823 13.61347462692464
Epoch: 2026-06-19T22:15Z
TLE epoch observation values (Epoch: 2026-06-19T22:15:38.002Z)
Latitude
61.68816°
Longitude
-90.16286°
Altitude
1,033.823 km
Speed
7.344 km/s
True Right ascension
10h 07m 34s
True Declination
61° 32' 59"
Sunlit
Object was in daylight at epoch
Visualization orbit readout
Latitude
Unknown
Longitude
Unknown
Altitude
Unknown
Speed
Unknown
Apparent Right ascension
Unknown
Apparent Declination
Unknown
Sunlit
N/A
Visualization observer readout
Local Sidereal Time
10:12:23
Azimuth
Unknown
Elevation
Unknown
Doppler factor
Unknown
Orbital elements
Apogee altitude
1,037.331 km
Perigee altitude
1,021.433 km
Semi-major axis
7,407.519 km
Eccentricity
0.00107
Inclination
65.3551°
RAAN
93.9828°
Arg. of periapsis
109.4516°
True anomaly
325.91343°
Mean anomaly
325.9823°
Eccentric anomaly
325.94787°
Mean motion
3.40435 °/min
Orbital period
105.75 mins
BSTAR
0.000942
Loading maneuver chart data...
Computing Atmospheric mass density...
Loading historical data...
Loading historical data...
Loading historical data...
Loading historical data...
Loading historical data...
Loading historical data...
Loading historical data...

Documentation

Showing up to 5 results
|